SP9WPN-12 Weather Reports


time (UTC)temp
C
wind
direction
speed
KPH
gust
KPH
rain 1hr
cm
rain 24hr
cm
rain mn
cm
humidity
%
barometer
mb
20260506171102 23 0.0 0.0 0.00 0.00 0.00 45 1005.3
20260506170104 23 0.0 0.0 0.00 0.00 0.00 45 1005.2
20260506165107 23 0.0 0.0 0.00 0.00 0.00 45 1005.2
20260506164109 23 0.0 0.0 0.00 0.00 0.00 44 1005.2
20260506163111 23 0.0 0.0 0.00 0.00 0.00 44 1005.4
20260506162113 23 0.0 0.0 0.00 0.00 0.00 43 1005.5
20260506161115 23 0.0 0.0 0.00 0.00 0.00 42 1005.5
20260506160117 24 0.0 0.0 0.00 0.00 0.00 40 1005.4
20260506155120 24 0.0 0.0 0.00 0.00 0.00 40 1005.4
20260506154122 25 0.0 0.0 0.00 0.00 0.00 39 1005.4
20260506153126 25 0.0 0.0 0.00 0.00 0.00 38 1005.5
20260506152128 25 0.0 0.0 0.00 0.00 0.00 38 1005.5
20260506151131 25 0.0 0.0 0.00 0.00 0.00 38 1005.5
20260506150133 26 0.0 0.0 0.00 0.00 0.00 36 1005.4
20260506145135 26 0.0 0.0 0.00 0.00 0.00 36 1005.5
20260506144136 26 0.0 0.0 0.00 0.00 0.00 36 1005.7
20260506143139 27 0.0 0.0 0.00 0.00 0.00 35 1005.7
20260506142142 26 0.0 0.0 0.00 0.00 0.00 37 1005.9
20260506141144 25 0.0 0.0 0.00 0.00 0.00 37 1006.0
20260506140146 25 0.0 0.0 0.00 0.00 0.00 36 1006.0
20260506135148 26 0.0 0.0 0.00 0.00 0.00 36 1005.9
20260506134151 26 0.0 0.0 0.00 0.00 0.00 36 1005.8
20260506133152 26 0.0 0.0 0.00 0.00 0.00 38 1006.1
20260506132154 26 0.0 0.0 0.00 0.00 0.00 37 1006.0
20260506131157 26 0.0 0.0 0.00 0.00 0.00 39 1006.1
20260506130159 25 0.0 0.0 0.00 0.00 0.00 39 1006.2
20260506125201 26 0.0 0.0 0.00 0.00 0.00 37 1006.3
20260506124204 27 0.0 0.0 0.00 0.00 0.00 36 1006.3
20260506123206 26 0.0 0.0 0.00 0.00 0.00 40 1006.5
20260506122209 24 0.0 0.0 0.00 0.00 0.00 41 1006.7
20260506121211 26 0.0 0.0 0.00 0.00 0.00 40 1006.5
20260506120213 25 0.0 0.0 0.00 0.00 0.00 40 1006.6
20260506115215 25 0.0 0.0 0.00 0.00 0.00 40 1006.6
20260506114217 25 0.0 0.0 0.00 0.00 0.00 41 1006.5
20260506113220 24 0.0 0.0 0.00 0.00 0.00 41 1006.5
20260506112222 26 0.0 0.0 0.00 0.00 0.00 41 1006.5
20260506111223 25 0.0 0.0 0.00 0.00 0.00 42 1006.7
20260506110225 26 0.0 0.0 0.00 0.00 0.00 42 1006.7
20260506105227 25 0.0 0.0 0.00 0.00 0.00 43 1006.8
20260506104229 25 0.0 0.0 0.00 0.00 0.00 43 1006.7
20260506103231 25 0.0 0.0 0.00 0.00 0.00 42 1006.9
20260506102233 24 0.0 0.0 0.00 0.00 0.00 44 1007.0
20260506101235 25 0.0 0.0 0.00 0.00 0.00 42 1007.0
20260506100237 24 0.0 0.0 0.00 0.00 0.00 45 1007.2
20260506095240 23 0.0 0.0 0.00 0.00 0.00 46 1007.1
20260506094243 23 0.0 0.0 0.00 0.00 0.00 47 1007.0
20260506093245 25 0.0 0.0 0.00 0.00 0.00 44 1006.7
20260506092247 24 0.0 0.0 0.00 0.00 0.00 45 1006.8
20260506091250 24 0.0 0.0 0.00 0.00 0.00 46 1006.8
20260506090252 23 0.0 0.0 0.00 0.00 0.00 46 1006.7
20260506085254 23 0.0 0.0 0.00 0.00 0.00 47 1006.6
20260506084256 22 0.0 0.0 0.00 0.00 0.00 50 1006.8
20260506083258 22 0.0 0.0 0.00 0.00 0.00 50 1006.8
20260506082304 23 0.0 0.0 0.00 0.00 0.00 48 1006.7
20260506081302 22 0.0 0.0 0.00 0.00 0.00 50 1006.8
20260506080304 22 0.0 0.0 0.00 0.00 0.00 52 1006.9
20260506073311 21 0.0 0.0 0.00 0.00 0.00 53 1006.9
20260506072313 21 0.0 0.0 0.00 0.00 0.00 54 1006.9
20260506071315 21 0.0 0.0 0.00 0.00 0.00 56 1006.9
20260506070317 20 0.0 0.0 0.00 0.00 0.00 57 1007.0
20260506062326 18 0.0 0.0 0.00 0.00 0.00 60 1007.1
20260506061328 17 0.0 0.0 0.00 0.00 0.00 62 1007.1
20260506060330 17 0.0 0.0 0.00 0.00 0.00 60 1007.0
20260506051340 16 0.0 0.0 0.00 0.00 0.00 62 1006.9
20260506050342 16 0.0 0.0 0.00 0.00 0.00 63 1006.9
20260506044347 16 0.0 0.0 0.00 0.00 0.00 64 1007.0
20260506043349 14 0.0 0.0 0.00 0.00 0.00 68 1007.1
20260506042351 13 0.0 0.0 0.00 0.00 0.00 71 1007.2
20260506041354 13 0.0 0.0 0.00 0.00 0.00 73 1007.3
20260506040357 13 0.0 0.0 0.00 0.00 0.00 71 1007.1
20260506035359 13 0.0 0.0 0.00 0.00 0.00 69 1007.1
20260506034401 13 0.0 0.0 0.00 0.00 0.00 68 1007.0
20260506033404 13 0.0 0.0 0.00 0.00 0.00 68 1007.0
20260506032407 14 0.0 0.0 0.00 0.00 0.00 67 1006.9
20260506031409 13 0.0 0.0 0.00 0.00 0.00 68 1006.9
20260506030411 14 0.0 0.0 0.00 0.00 0.00 67 1006.9
20260506025413 14 0.0 0.0 0.00 0.00 0.00 66 1006.9
20260506024415 15 0.0 0.0 0.00 0.00 0.00 64 1006.8
20260506023417 15 0.0 0.0 0.00 0.00 0.00 62 1006.8
20260506022419 15 0.0 0.0 0.00 0.00 0.00 61 1006.7
20260506021421 15 0.0 0.0 0.00 0.00 0.00 60 1006.7
20260506020423 15 0.0 0.0 0.00 0.00 0.00 61 1006.7
20260506015425 15 0.0 0.0 0.00 0.00 0.00 61 1006.7
20260506014428 15 0.0 0.0 0.00 0.00 0.00 59 1006.7
20260506013429 15 0.0 0.0 0.00 0.00 0.00 58 1006.6
20260506012432 15 0.0 0.0 0.00 0.00 0.00 57 1006.6
20260506011435 15 0.0 0.0 0.00 0.00 0.00 57 1006.7
20260506010438 15 0.0 0.0 0.00 0.00 0.00 56 1006.5
20260506005440 15 0.0 0.0 0.00 0.00 0.00 57 1006.8
20260506004443 16 0.0 0.0 0.00 0.00 0.00 55 1006.7
20260506003445 15 0.0 0.0 0.00 0.00 0.00 56 1006.7
20260506002447 15 0.0 0.0 0.00 0.00 0.00 56 1006.7
20260506001449 16 0.0 0.0 0.00 0.00 0.00 54 1006.6
20260506000452 16 0.0 0.0 0.00 0.00 0.00 52 1006.6
20260505235454 17 0.0 0.0 0.00 0.00 0.00 50 1006.6
20260505234455 17 0.0 0.0 0.00 0.00 0.00 48 1006.6
20260505233458 17 0.0 0.0 0.00 0.00 0.00 47 1006.7
20260505232500 18 0.0 0.0 0.00 0.00 0.00 47 1006.7
20260505231502 17 0.0 0.0 0.00 0.00 0.00 48 1006.7
20260505230505 17 0.0 0.0 0.00 0.00 0.00 48 1006.8
20260505225507 17 0.0 0.0 0.00 0.00 0.00 49 1006.8
20260505224509 17 0.0 0.0 0.00 0.00 0.00 49 1006.9
20260505223511 18 0.0 0.0 0.00 0.00 0.00 48 1006.9
20260505222514 18 0.0 0.0 0.00 0.00 0.00 48 1006.9
20260505221517 18 0.0 0.0 0.00 0.00 0.00 47 1006.9
20260505220519 18 0.0 0.0 0.00 0.00 0.00 47 1006.9
20260505215522 19 0.0 0.0 0.00 0.00 0.00 46 1007.0
20260505214524 19 0.0 0.0 0.00 0.00 0.00 46 1007.0
20260505213527 19 0.0 0.0 0.00 0.00 0.00 46 1007.1
20260505212530 19 0.0 0.0 0.00 0.00 0.00 46 1007.1
20260505211532 19 0.0 0.0 0.00 0.00 0.00 45 1007.1
20260505210535 20 0.0 0.0 0.00 0.00 0.00 45 1007.0
20260505205537 20 0.0 0.0 0.00 0.00 0.00 44 1007.0
20260505204540 20 0.0 0.0 0.00 0.00 0.00 44 1006.9
20260505203542 20 0.0 0.0 0.00 0.00 0.00 44 1006.9
20260505202544 20 0.0 0.0 0.00 0.00 0.00 43 1006.9
20260505201547 20 0.0 0.0 0.00 0.00 0.00 43 1006.8
20260505200550 20 0.0 0.0 0.00 0.00 0.00 43 1006.8
20260505195552 20 0.0 0.0 0.00 0.00 0.00 42 1006.8
20260505194554 20 0.0 0.0 0.00 0.00 0.00 41 1006.8
20260505193557 20 0.0 0.0 0.00 0.00 0.00 41 1006.8
20260505192600 20 0.0 0.0 0.00 0.00 0.00 40 1006.8
20260505191602 20 0.0 0.0 0.00 0.00 0.00 39 1006.8
20260505190604 20 0.0 0.0 0.00 0.00 0.00 39 1006.8
20260505185606 20 0.0 0.0 0.00 0.00 0.00 38 1006.7
20260505184608 20 0.0 0.0 0.00 0.00 0.00 37 1006.6
20260505183611 21 0.0 0.0 0.00 0.00 0.00 36 1006.5
20260505182613 20 0.0 0.0 0.00 0.00 0.00 36 1006.5
20260505181616 22 0.0 0.0 0.00 0.00 0.00 32 1006.3
20260505180617 22 0.0 0.0 0.00 0.00 0.00 32 1006.2
20260505175620 22 0.0 0.0 0.00 0.00 0.00 31 1006.2
20260505174621 23 0.0 0.0 0.00 0.00 0.00 29 1006.2
20260505173623 23 0.0 0.0 0.00 0.00 0.00 27 1006.1
20260505172626 23 0.0 0.0 0.00 0.00 0.00 26 1005.9
20260505171628 24 0.0 0.0 0.00 0.00 0.00 25 1005.8